Showing default

RADUGA 21, 18631

Orbit data source: Space-Track

RADUGA 21, 18631 is a payload satellite owned by UNKS (CIS) in GEO that was launched on Thu, 10 Dec 1987 UTC via a PROTON-K/DM-2 launch vehicle from the Tyuratam Missile And Space Complex (TTMTR). Payloads include a variety of satellites, spacecraft, and rockets equipped with specific instruments for various scientific and technological missions. These include communications satellites like Starlink; space stations such as the ISS; scientific satellites like the Hubble; Earth observation satellites from companies like Planet Labs, Umbra, and HawkEye 360; GPS; miniature CubeSats for education and research; and military/defense satellites.

Loading next visibility...
RADUGA 21 details
Identifier
18631, 1987-100A
Orbit
GEO
Last TLE update1 day ago
Origin
Flag of CISUNKS (CIS)
ManufacturerNPO PM
MissionNon-operational Defense Communications
Bus & MotorRADUGA, Unknown motor
Mass1,965 kg wet, ~1,800 kg dry
Launch date (UTC)
1987-12-10 (37 years ago)
Launch vehicle
PROTON-K/DM-2
Launch site
Tyuratam Missile And Space Complex (TTMTR)
Object type
Payload
Rocket body
Debris
Shape & HBRCyl + 2 Pan, 9.5 m
Radar Cross Section16.975 m², Large (>1 m²)

Expand to show TLE details & history

TLE from 1 day ago
0 RADUGA 21
1 18631U 87100A   24325.05961521 -.00000086  00000-0  00000-0 0  9995
2 18631  12.1312 329.3816 0002419 205.5653 159.2232  1.00182387135334
Epoch: 2024-11-20T01:25Z
Definitive object data (Epoch: 2024-11-20T01:25:50.754Z)
Latitude1.01622°
Longitude-106.96458°
Altitude35,820.586 km
Speed3.073 km/s
True Right ascension22h 16m 13s
True Declination1° 00' 55"
Sunlit
Object was in daylight at TLE epoch
Visualization TLE readout
Latitude11.98665°
Longitude-31.18804°
Altitude35,816.403 km
Speed3.073 km/s
Apparent Right ascension03h 18m 03s
Apparent Declination7° 20' 08"
Sunlit
Object is in daylight
Visualization observer readout
Local Sidereal Time03:28:48
Azimuth184.939° SSW
Elevation57.331°
Doppler factor1
Orbital elements
Apogee altitude35,822.882 km
Perigee altitude35,802.47 km
Semi-major axis42,190.813 km
Eccentricity0.0002419
Inclination12.1312°
RAAN329.3816°
Arg. of periapsis205.5653°
True anomaly159.23303°
Mean anomaly159.2232°
Eccentric anomaly159.22812°
Mean motion0.25045 °/min
BSTARUnknown
Orbital period1437.43 mins
Loading historical data...
18631 neighbors
Authenticating...
Loading maneuver chart data...
Loading historical data...
Loading historical data...
Loading historical data...
Loading historical data...
Loading historical data...
Loading historical data...
Loading historical data...

RADUGA 21 Visibility forecast

Observer location: undefined°, undefined

Span
Click to sort rows by Start time (UTC) header in descending order
Start Az.
Max El. time (UTC)
Max El. Az.
Max El.
End time (UTC)
End Az.
1440 mins2024-11-21 06:26:16.166Z184.936° SSW2024-11-21 07:07:16.166Z184.5° SSW40.148°2024-11-22 06:26:16.166Z185.583° SSW
|